Date,TemperatureHighF,TemperatureAvgF,TemperatureLowF,DewpointHighF,DewpointAvgF,DewpointLowF,HumidityHigh,HumidityAvg,HumidityLow,PressureMaxIn,PressureMinIn,WindSpeedMaxMPH,WindSpeedAvgMPH,GustSpeedMaxMPH,PrecipitationSumIn
2013-2-4,70.0,57.2,38.0,0.0,0.0,0.0,71,31,16,30.14,30.01,14,4,14,0.00
2013-2-5,73.0,57.2,40.0,0.0,0.0,0.0,50,29,13,30.04,29.84,28,10,28,0.00
2013-2-6,67.0,55.1,41.0,0.0,0.0,0.0,61,32,11,30.07,29.85,28,7,28,0.00
2013-2-7,68.0,50.5,37.0,0.0,0.0,0.0,52,32,8,30.07,29.81,28,11,32,0.00
2013-2-8,54.0,43.1,36.0,0.0,0.0,0.0,65,49,23,29.81,29.71,33,18,37,0.00
2013-2-9,58.0,44.8,35.0,0.0,0.0,0.0,61,39,17,30.00,29.79,22,11,24,0.00
2013-2-10,56.0,43.3,27.0,0.0,0.0,0.0,62,39,17,30.02,29.89,28,8,28,0.00
2013-2-11,52.0,42.7,32.0,0.0,0.0,0.0,45,22,10,30.22,30.02,26,8,33,0.00
2013-2-12,58.0,41.0,0.0,0.0,0.0,0.0,37,23,12,30.33,30.21,15,5,18,0.00
2013-2-13,64.0,46.2,28.0,0.0,0.0,0.0,38,24,13,30.29,30.14,15,6,17,0.00
2013-2-14,68.0,52.1,32.0,0.0,0.0,0.0,44,27,16,30.25,30.14,21,9,23,0.00
2013-2-15,69.0,57.7,42.0,0.0,0.0,0.0,34,21,11,30.33,30.25,22,9,26,0.00
2013-2-16,68.0,50.4,32.0,0.0,0.0,0.0,39,23,11,30.32,29.99,16,7,17,0.00
2013-2-17,72.0,55.7,40.0,0.0,0.0,0.0,38,21,7,29.99,29.82,18,6,21,0.00
2013-2-18,70.0,53.3,35.0,0.0,0.0,0.0,61,31,13,30.01,29.82,20,8,22,0.00
2013-2-19,57.0,46.4,37.0,0.0,0.0,0.0,79,50,22,29.84,29.53,36,19,43,0.00
2013-2-20,59.0,44.2,35.0,0.0,0.0,0.0,82,46,17,29.89,29.50,24,10,31,0.00
2013-2-21,54.0,41.4,30.0,0.0,0.0,0.0,62,36,13,30.06,29.89,22,9,30,0.00
2013-2-22,62.0,45.6,27.0,0.0,0.0,0.0,63,30,11,30.18,30.06,22,6,23,0.00
2013-2-23,45.0,43.3,42.0,0.0,0.0,0.0,42,34,25,30.08,30.02,21,12,24,0.00
2013-2-25,63.0,49.3,28.0,0.0,0.0,0.0,31,17,9,30.22,29.97,18,6,22,0.00
2013-2-26,61.0,46.9,29.0,0.0,0.0,0.0,42,20,10,30.20,30.02,22,11,24,0.00
2013-2-27,61.0,48.3,34.0,0.0,0.0,0.0,29,17,9,30.34,30.20,21,6,21,0.00
2013-2-28,68.0,49.5,29.0,0.0,0.0,0.0,27,16,8,30.41,30.32,14,5,17,0.00